Terug naar catalogus

THORAD AGENA D DEB

ActiefLEO
NORAD 4895·DEBRIS·🇺🇸 United States

Gelanceerd Sep 30, 1969 vanaf Vandenberg Space Force Base

Loading…

Volgende Passages

TLE

Source: Space-Track
1 04895U 69082HE  26230.19093443  .00000679  00000-0  21829-3 0  9994
2 04895  70.1708 298.2110 0040909 202.9794 156.9509 14.42918716952148

Volg THORAD AGENA D DEB in realtime met AllMySat

Download on the App Store